Previsão horária em Abergele

Hoje, 20 Janeiro, Quarta-feira

Tempo Temperatura Precipitação Vento Pressão Humidade
00:00 +9°C° 0 mm 7 m/s 732 mmHg 92%
01:00 +9°C° 0.3 mm 7 m/s 731 mmHg 93%
02:00 +9°C° 0.3 mm 7 m/s 731 mmHg 94%
03:00 +9°C° 0.3 mm 6 m/s 730 mmHg 95%
04:00 +9°C° 0.5 mm 6 m/s 730 mmHg 94%
05:00 +9°C° 0.5 mm 5 m/s 729 mmHg 94%
06:00 +9°C° 0 mm 5 m/s 729 mmHg 94%
07:00 +9°C° 2 mm 5 m/s 729 mmHg 95%
08:00 +10°C° 2 mm 4 m/s 729 mmHg 96%
09:00 +10°C° 2 mm 3 m/s 728 mmHg 97%
10:00 +9°C° 3.1 mm 3 m/s 728 mmHg 97%
11:00 +8°C° 3.1 mm 4 m/s 727 mmHg 97%
12:00 +7°C° 3.1 mm 4 m/s 726 mmHg 97%
13:00 +7°C° 3.2 mm 4 m/s 726 mmHg 97%
14:00 +6°C° 3.2 mm 5 m/s 725 mmHg 96%
15:00 +6°C° 3.2 mm 5 m/s 725 mmHg 96%
16:00 +5°C° 2.3 mm 5 m/s 724 mmHg 97%
17:00 +4°C° 2.3 mm 4 m/s 724 mmHg 97%
18:00 +3°C° 2.3 mm 4 m/s 724 mmHg 98%
19:00 +1°C° 3.7 mm 4 m/s 723 mmHg 98%
20:00 +1°C° 3.7 mm 4 m/s 723 mmHg 98%
21:00 0°C° 3.7 mm 4 m/s 723 mmHg 98%
22:00 -1°C° 0.7 mm 6 m/s 723 mmHg 95%
23:00 0°C° 0.7 mm 7 m/s 723 mmHg 92%

Amanhã, 21 Janeiro, Quinta-feira

Tempo Temperatura Precipitação Vento Pressão Humidade
00:00 0°C° 0.7 mm 8 m/s 723 mmHg 89%
01:00 0°C° 0.1 mm 8 m/s 723 mmHg 89%
02:00 0°C° 0.1 mm 9 m/s 724 mmHg 88%
03:00 0°C° 0.1 mm 9 m/s 724 mmHg 87%
04:00 0°C° 0.1 mm 9 m/s 725 mmHg 88%
05:00 0°C° 0.1 mm 9 m/s 725 mmHg 89%
06:00 -1°C° 0.1 mm 9 m/s 726 mmHg 90%
07:00 -2°C° 0.1 mm 10 m/s 726 mmHg 88%
08:00 0°C° 0.1 mm 10 m/s 726 mmHg 86%
09:00 -1°C° 0.1 mm 11 m/s 726 mmHg 84%
10:00 -1°C° 0.2 mm 11 m/s 726 mmHg 86%
11:00 0°C° 0.2 mm 10 m/s 727 mmHg 87%
12:00 +1°C° 0.2 mm 10 m/s 727 mmHg 88%
13:00 +1°C° 0.2 mm 9 m/s 728 mmHg 87%
14:00 +1°C° 0.2 mm 9 m/s 728 mmHg 86%
15:00 +1°C° 0.2 mm 8 m/s 728 mmHg 85%
16:00 0°C° 0.1 mm 8 m/s 728 mmHg 85%
17:00 0°C° 0.1 mm 7 m/s 729 mmHg 85%
18:00 0°C° 0.1 mm 7 m/s 729 mmHg 85%
19:00 0°C° 0 mm 7 m/s 730 mmHg 86%
20:00 0°C° 0 mm 7 m/s 730 mmHg 86%
21:00 0°C° 0 mm 7 m/s 730 mmHg 87%
22:00 -1°C° 0 mm 7 m/s 731 mmHg 86%
23:00 -1°C° 0 mm 7 m/s 731 mmHg 85%

Depois de amanhã, 22 Janeiro, Sexta-feira

Tempo Temperatura Precipitação Vento Pressão Humidade
00:00 -1°C° 0 mm 7 m/s 731 mmHg 85%
01:00 -1°C° 0 mm 7 m/s 732 mmHg 86%
02:00 -1°C° 0 mm 7 m/s 732 mmHg 86%
03:00 -1°C° 0 mm 6 m/s 733 mmHg 87%
04:00 -1°C° 0 mm 6 m/s 733 mmHg 88%
05:00 -1°C° 0 mm 6 m/s 733 mmHg 88%
06:00 -2°C° 0 mm 6 m/s 733 mmHg 88%
07:00 -2°C° 0 mm 6 m/s 733 mmHg 88%
08:00 -2°C° 0 mm 6 m/s 734 mmHg 87%
09:00 -2°C° 0 mm 6 m/s 734 mmHg 87%
10:00 -1°C° 0 mm 6 m/s 734 mmHg 84%
11:00 +1°C° 0 mm 6 m/s 735 mmHg 82%
12:00 +2°C° 0 mm 6 m/s 735 mmHg 79%
13:00 +2°C° 0 mm 6 m/s 735 mmHg 80%
14:00 +2°C° 0 mm 6 m/s 735 mmHg 80%
15:00 +1°C° 0 mm 5 m/s 735 mmHg 81%
16:00 0°C° 0.1 mm 5 m/s 735 mmHg 83%
17:00 -1°C° 0.1 mm 5 m/s 735 mmHg 86%
18:00 -2°C° 0.1 mm 4 m/s 736 mmHg 88%
19:00 -2°C° 0.2 mm 4 m/s 736 mmHg 89%
20:00 -2°C° 0.2 mm 4 m/s 736 mmHg 90%
21:00 -2°C° 0.2 mm 4 m/s 736 mmHg 91%
22:00 -1°C° 0.2 mm 3 m/s 737 mmHg 90%
23:00 -1°C° 0.2 mm 3 m/s 737 mmHg 89%

23 Janeiro, Sábado

Tempo Temperatura Precipitação Vento Pressão Humidade
00:00 -1°C° 0.2 mm 3 m/s 737 mmHg 88%
01:00 -1°C° 0.2 mm 3 m/s 737 mmHg 88%
02:00 -1°C° 0.2 mm 3 m/s 738 mmHg 88%
03:00 -1°C° 0.2 mm 3 m/s 738 mmHg 88%
04:00 -1°C° 0.1 mm 3 m/s 738 mmHg 88%
05:00 -1°C° 0.1 mm 3 m/s 739 mmHg 87%
06:00 -2°C° 0.1 mm 4 m/s 739 mmHg 86%
07:00 -3°C° 0.1 mm 4 m/s 739 mmHg 85%
08:00 -3°C° 0.1 mm 4 m/s 739 mmHg 84%
09:00 -3°C° 0.1 mm 4 m/s 740 mmHg 83%
10:00 -1°C° 0.1 mm 4 m/s 740 mmHg 80%
11:00 0°C° 0.1 mm 5 m/s 740 mmHg 77%
12:00 +1°C° 0.1 mm 6 m/s 740 mmHg 74%
13:00 +1°C° 0.1 mm 5 m/s 740 mmHg 75%
14:00 +1°C° 0.1 mm 5 m/s 740 mmHg 76%
15:00 0°C° 0.1 mm 5 m/s 740 mmHg 77%
16:00 -1°C° 0 mm 5 m/s 740 mmHg 80%
17:00 -2°C° 0 mm 5 m/s 740 mmHg 84%
18:00 -3°C° 0 mm 4 m/s 740 mmHg 88%
19:00 -3°C° 0 mm 4 m/s 740 mmHg 88%
20:00 -3°C° 0 mm 4 m/s 740 mmHg 89%
21:00 -3°C° 0 mm 4 m/s 740 mmHg 90%
22:00 -3°C° 0.2 mm 4 m/s 739 mmHg 89%
23:00 -1°C° 0.2 mm 3 m/s 739 mmHg 89%

24 Janeiro, Domingo

Tempo Temperatura Precipitação Vento Pressão Humidade
00:00 -1°C° 0.2 mm 3 m/s 739 mmHg 89%
01:00 -1°C° 1 mm 3 m/s 739 mmHg 91%
02:00 -1°C° 1 mm 2 m/s 739 mmHg 93%
03:00 -1°C° 1 mm 2 m/s 738 mmHg 96%
04:00 -1°C° 0.4 mm 3 m/s 738 mmHg 95%
05:00 -2°C° 0.4 mm 4 m/s 738 mmHg 94%
06:00 -2°C° 0.4 mm 5 m/s 739 mmHg 93%
07:00 -2°C° 0.3 mm 5 m/s 739 mmHg 91%
08:00 -2°C° 0.3 mm 5 m/s 739 mmHg 88%
09:00 -2°C° 0.3 mm 5 m/s 739 mmHg 86%
10:00 -2°C° 0.2 mm 6 m/s 739 mmHg 84%
11:00 -1°C° 0.2 mm 7 m/s 739 mmHg 82%
12:00 0°C° 0.2 mm 8 m/s 739 mmHg 80%
13:00 0°C° 0.1 mm 8 m/s 739 mmHg 81%
14:00 0°C° 0.1 mm 9 m/s 740 mmHg 81%
15:00 0°C° 0.1 mm 9 m/s 740 mmHg 82%
16:00 0°C° 0.1 mm 9 m/s 740 mmHg 83%
17:00 0°C° 0.1 mm 9 m/s 740 mmHg 83%
18:00 +1°C° 0.1 mm 9 m/s 741 mmHg 83%
19:00 +1°C° 0.1 mm 9 m/s 741 mmHg 85%
20:00 +1°C° 0.1 mm 8 m/s 742 mmHg 87%
21:00 +1°C° 0.1 mm 8 m/s 742 mmHg 88%
22:00 +1°C° 0.2 mm 8 m/s 743 mmHg 88%
23:00 +1°C° 0.2 mm 8 m/s 743 mmHg 88%

25 Janeiro, Segunda-feira

Tempo Temperatura Precipitação Vento Pressão Humidade
00:00 +2°C° 0.2 mm 7 m/s 744 mmHg 88%
01:00 +2°C° 0.1 mm 7 m/s 744 mmHg 88%
02:00 +2°C° 0.1 mm 7 m/s 745 mmHg 87%
03:00 +2°C° 0.1 mm 7 m/s 746 mmHg 87%
04:00 +2°C° 0.1 mm 7 m/s 746 mmHg 87%
05:00 0°C° 0.1 mm 7 m/s 747 mmHg 86%
06:00 0°C° 0.1 mm 7 m/s 747 mmHg 86%
07:00 0°C° 0 mm 7 m/s 748 mmHg 86%
08:00 0°C° 0 mm 7 m/s 748 mmHg 86%
09:00 +1°C° 0 mm 6 m/s 749 mmHg 86%
10:00 0°C° 0 mm 7 m/s 749 mmHg 86%
11:00 +2°C° 0 mm 7 m/s 750 mmHg 85%
12:00 +2°C° 0 mm 7 m/s 750 mmHg 85%
13:00 +2°C° 0 mm 6 m/s 750 mmHg 85%
14:00 +2°C° 0 mm 6 m/s 750 mmHg 86%
15:00 +2°C° 0 mm 6 m/s 750 mmHg 86%
16:00 +1°C° 0 mm 5 m/s 751 mmHg 87%
17:00 0°C° 0 mm 4 m/s 751 mmHg 88%
18:00 -1°C° 0 mm 4 m/s 751 mmHg 89%
19:00 +1°C° 0 mm 3 m/s 751 mmHg 89%
20:00 +1°C° 0 mm 3 m/s 751 mmHg 88%
21:00 +1°C° 0 mm 3 m/s 751 mmHg 88%
22:00 +1°C° 0.1 mm 3 m/s 750 mmHg 90%
23:00 +1°C° 0.1 mm 3 m/s 750 mmHg 91%
Mostrar mais